Weather History for LTBA - September, 2013

Change the Weather History Date:

Monday, September 9, 2013

  Actual Average Record
Temperature  
Mean Temperature 72 °F -  
Max Temperature 81 °F 72 °F 86 °F (2010)
Min Temperature 63 °F 59 °F 55 °F (1996)
Cooling Degree Days 7    
Growing Degree Days 22 (Base 50)    
Moisture  
Dew Point 50 °F    
Average Humidity 47    
Maximum Humidity 73    
Minimum Humidity 20    
Precipitation  
Precipitation 0.00 in - - ()
Sea Level Pressure  
Sea Level Pressure 30.16 in    
Wind  
Wind Speed 7 mph ()    
Max Wind Speed 12 mph    
Max Gust Speed 22 mph    
Visibility 6.2 miles    
Events      
Averages and records for this station are not official NWS values.
T = Trace of Precipitation, MM = Missing Value Source: Averaged Metar Reports

Daily Weather History Graph

Daily Weather History Graph

Search for Another Location

Airport or City:

Trip Planner

Search our weather history database for the weather conditions in past years. The results will help you decide how hot, cold, wet, or windy it might be!

Date:

Astronomy

Sep. 09, 2013 Rise Set
Actual Time 6:39 AM EEST 7:24 PM EEST
Civil Twilight 6:11 AM EEST 7:51 PM EEST
Nautical Twilight 5:38 AM EEST 8:24 PM EEST
Astronomical Twilight 5:04 AM EEST 8:58 PM EEST
Moon 10:42 AM EEST (9/9) 9:24 PM EEST (9/9)
Length of Visible Light 13h 40m
Length of Day
12h 44m
Waxing Crescent, 16% of the Moon is Illuminated
Sep 9
Waxing Crescent
Sep 12
First Quarter
Sep 19
Full
Sep 27
Last Quarter
Oct 5
New

Hourly Weather History & Observations

Time (EEST) Temp. Dew Point Humidity Pressure Visibility Wind Dir Wind Speed Gust Speed Precip Events Conditions
12:20 AM 69.8 °F 55.4 °F 60% 30.18 in 6.2 mi NE 5.8 mph - N/A   Scattered Clouds
12:50 AM 69.8 °F 55.4 °F 60% 30.18 in 6.2 mi ENE 5.8 mph - N/A   Scattered Clouds
1:20 AM 69.8 °F 55.4 °F 60% 30.18 in 6.2 mi NE 5.8 mph - N/A   Scattered Clouds
1:50 AM 68.0 °F 53.6 °F 60% 30.18 in 6.2 mi Variable 2.3 mph - N/A   Partly Cloudy
2:20 AM 66.2 °F 53.6 °F 64% 30.15 in - NNW 4.6 mph - N/A   Clear
2:50 AM 64.4 °F 53.6 °F 68% 30.15 in - North 5.8 mph - N/A   Clear
3:00 AM 64 °F 54 °F 61% 30.17 in 6 mi North 5.8 mph - -  
3:20 AM 64.4 °F 55.4 °F 73% 30.15 in - North 5.8 mph - N/A   Clear
3:50 AM 64.4 °F 53.6 °F 68% 30.15 in - North 4.6 mph - N/A   Clear
4:20 AM 68.0 °F 55.4 °F 64% 30.15 in 6.2 mi ENE 3.5 mph - N/A   Partly Cloudy
4:50 AM 68.0 °F 55.4 °F 64% 30.15 in 6.2 mi ENE 5.8 mph - N/A   Scattered Clouds
5:20 AM 68.0 °F 55.4 °F 64% 30.15 in 6.2 mi NE 6.9 mph - N/A   Scattered Clouds
5:50 AM 68.0 °F 55.4 °F 64% 30.15 in 6.2 mi NE 8.1 mph - N/A   Scattered Clouds
6:20 AM 68.0 °F 55.4 °F 64% 30.15 in 6.2 mi NE 5.8 mph - N/A   Scattered Clouds
6:50 AM 68.0 °F 55.4 °F 64% 30.15 in 6.2 mi East 3.5 mph - N/A   Scattered Clouds
7:20 AM 68.0 °F 55.4 °F 64% 30.18 in 6.2 mi NE 5.8 mph - N/A   Partly Cloudy
7:50 AM 69.8 °F 53.6 °F 56% 30.18 in 6.2 mi ENE 5.8 mph - N/A   Partly Cloudy
8:20 AM 71.6 °F 53.6 °F 53% 30.18 in 6.2 mi NE 4.6 mph - N/A   Partly Cloudy
8:50 AM 71.6 °F 50.0 °F 46% 30.18 in 6.2 mi NE 8.1 mph - N/A   Partly Cloudy
9:00 AM 71 °F 51 °F 37% 30.19 in 6 mi NE 8.1 mph - -   Scattered Clouds
9:20 AM 71.6 °F 50.0 °F 46% 30.18 in 6.2 mi East 10.4 mph - N/A   Partly Cloudy
9:50 AM 73.4 °F 48.2 °F 41% 30.18 in 6.2 mi ENE 10.4 mph - N/A   Scattered Clouds
10:20 AM 75.2 °F 48.2 °F 38% 30.18 in 6.2 mi ENE 10.4 mph - N/A   Scattered Clouds
10:50 AM 73.4 °F 46.4 °F 38% 30.18 in 6.2 mi ENE 8.1 mph - N/A   Scattered Clouds
11:20 AM 75.2 °F 44.6 °F 34% 30.18 in 6.2 mi ENE 11.5 mph - N/A   Scattered Clouds
11:50 AM 77.0 °F 42.8 °F 29% 30.18 in 6.2 mi ENE 9.2 mph - N/A   Scattered Clouds
12:20 PM 75.2 °F 42.8 °F 31% 30.18 in 6.2 mi NNE 10.4 mph - N/A   Scattered Clouds
12:50 PM 77.0 °F 41.0 °F 28% 30.18 in 6.2 mi NE 11.5 mph - N/A   Partly Cloudy
1:20 PM 77.0 °F 44.6 °F 32% 30.18 in 6.2 mi NNE 9.2 mph - N/A   Partly Cloudy
1:50 PM 78.8 °F 42.8 °F 28% 30.15 in 6.2 mi Variable 9.2 mph 21.9 mph N/A   Partly Cloudy
2:20 PM 77.0 °F 44.6 °F 32% 30.15 in 6.2 mi Variable 9.2 mph - N/A   Partly Cloudy
2:50 PM 78.8 °F 44.6 °F 30% 30.15 in 6.2 mi NE 9.2 mph - N/A   Partly Cloudy
3:00 PM 78 °F 45 °F 20% 30.15 in 6 mi NE 9.2 mph - -   Scattered Clouds
3:20 PM 78.8 °F 44.6 °F 30% 30.15 in 6.2 mi Variable 10.4 mph - N/A   Partly Cloudy
3:50 PM 78.8 °F 46.4 °F 32% 30.15 in 6.2 mi North 11.5 mph - N/A   Partly Cloudy
4:20 PM 78.8 °F 46.4 °F 32% 30.12 in - North 9.2 mph - N/A   Clear
4:50 PM 77.0 °F 46.4 °F 34% 30.12 in - NNE 10.4 mph - N/A   Clear
5:20 PM 77.0 °F 46.4 °F 34% 30.12 in - NNE 10.4 mph - N/A   Clear
5:50 PM 77.0 °F 46.4 °F 34% 30.12 in - NNE 11.5 mph - N/A   Clear
6:20 PM 75.2 °F 48.2 °F 38% 30.12 in - NNE 10.4 mph - N/A   Clear
6:50 PM 73.4 °F 48.2 °F 41% 30.12 in - NE 10.4 mph - N/A   Clear
7:20 PM 73.4 °F 51.8 °F 47% 30.12 in - NNE 10.4 mph - N/A   Clear
7:50 PM 71.6 °F 50.0 °F 46% 30.12 in - NE 9.2 mph - N/A   Clear
8:20 PM 71.6 °F 50.0 °F 46% 30.15 in - Variable 10.4 mph - N/A   Clear
8:50 PM 73.4 °F 50.0 °F 44% 30.15 in - East 9.2 mph - N/A   Clear
9:00 PM 73 °F 50 °F 33% 30.15 in 6 mi East 9.2 mph - -  
9:20 PM 71.6 °F 50.0 °F 46% 30.15 in - ENE 10.4 mph - N/A   Clear
9:50 PM 69.8 °F 51.8 °F 53% 30.15 in - East 9.2 mph - N/A   Clear
10:20 PM 69.8 °F 51.8 °F 53% 30.15 in - ENE 9.2 mph - N/A   Clear
10:50 PM 68.0 °F 51.8 °F 56% 30.15 in - ENE 6.9 mph - N/A   Clear
11:20 PM 69.8 °F 51.8 °F 53% 30.15 in - East 10.4 mph - N/A   Clear
11:50 PM 68.0 °F 51.8 °F 56% 30.12 in - East 9.2 mph - N/A   Clear